| time (UTC) | temp F | wind direction | speed MPH | gust MPH | rain 1hr in | rain 24hr in | rain mn in | humidity % | barometer mb |
| 20260901064834 | 59 | 135 | 2.0 | 8.0 | 0.00 | 0.00 | 0.34 | 99 | 1006.0 |
| 20260901064329 | 59 | 135 | 2.0 | 4.0 | 0.00 | 0.00 | 0.34 | 99 | 1006.0 |
| 20260901063824 | 59 | 135 | 1.0 | 3.0 | 0.00 | 0.00 | 0.34 | 99 | 1006.0 |
| 20260901063319 | 59 | 112 | 2.0 | 2.0 | 0.00 | 0.00 | 0.34 | 98 | 1006.0 |
| 20260901062813 | 59 | 135 | 2.0 | 5.0 | 0.00 | 0.00 | 0.34 | 99 | 1006.0 |
| 20260901062310 | 59 | 135 | 3.0 | 6.0 | 0.00 | 0.00 | 0.34 | 99 | 1005.9 |
| 20260901061803 | 59 | 126 | 2.0 | 4.0 | 0.00 | 0.00 | 0.34 | 99 | 1005.8 |
| 20260901061258 | 59 | 90 | 1.0 | 4.0 | 0.00 | 0.00 | 0.34 | 99 | 1005.9 |
| 20260901060247 | 58 | 90 | 2.0 | 2.0 | 0.00 | 0.00 | 0.34 | 99 | 1005.9 |
| 20260901055742 | 58 | 90 | 0.0 | 0.0 | 0.00 | 0.00 | 0.34 | 99 | 1005.7 |
| 20260901055237 | 58 | 90 | 0.0 | 0.0 | 0.00 | 0.00 | 0.34 | 99 | 1005.9 |
| 20260901054732 | 58 | 90 | 0.0 | 0.0 | 0.00 | 0.00 | 0.34 | 99 | 1005.7 |
| 20260901054226 | 58 | 90 | 0.0 | 0.0 | 0.00 | 0.00 | 0.34 | 99 | 1005.8 |
| 20260901053721 | 58 | 90 | 0.0 | 0.0 | 0.00 | 0.00 | 0.34 | 98 | 1005.7 |
| 20260901053216 | 57 | 90 | 0.0 | 0.0 | 0.00 | 0.00 | 0.34 | 98 | 1005.6 |
| 20260901052711 | 57 | 90 | 0.0 | 0.0 | 0.00 | 0.00 | 0.34 | 98 | 1005.6 |
| 20260901052206 | 57 | 90 | 1.0 | 1.0 | 0.00 | 0.00 | 0.34 | 99 | 1005.6 |
| 20260901051700 | 57 | 90 | 0.0 | 0.0 | 0.00 | 0.00 | 0.34 | 98 | 1005.5 |
| 20260901051155 | 57 | 85 | 0.0 | 0.0 | 0.00 | 0.00 | 0.34 | 99 | 1005.5 |
| 20260901050650 | 57 | 90 | 0.0 | 0.0 | 0.00 | 0.00 | 0.34 | 98 | 1005.4 |
| 20260901050145 | 56 | 90 | 0.0 | 0.0 | 0.00 | 0.00 | 0.34 | 98 | 1005.5 |
| 20260901045640 | 56 | 90 | 0.0 | 0.0 | 0.00 | 0.00 | 0.34 | 98 | 1005.5 |
| 20260901045134 | 56 | 90 | 0.0 | 0.0 | 0.00 | 0.00 | 0.34 | 98 | 1005.3 |
| 20260901044629 | 56 | 90 | 0.0 | 0.0 | 0.00 | 0.00 | 0.34 | 98 | 1005.3 |
| 20260901044124 | 56 | 90 | 0.0 | 0.0 | 0.00 | 0.00 | 0.34 | 98 | 1005.3 |
| 20260901043619 | 56 | 90 | 0.0 | 0.0 | 0.00 | 0.00 | 0.34 | 97 | 1005.2 |
| 20260901043114 | 56 | 85 | 0.0 | 0.0 | 0.00 | 0.00 | 0.34 | 97 | 1005.3 |
| 20260901042608 | 56 | 85 | 0.0 | 0.0 | 0.00 | 0.00 | 0.34 | 97 | 1005.1 |
| 20260901042103 | 56 | 90 | 0.0 | 0.0 | 0.00 | 0.00 | 0.34 | 98 | 1005.2 |
| 20260901041558 | 56 | 90 | 0.0 | 0.0 | 0.00 | 0.00 | 0.34 | 98 | 1005.1 |
| 20260901041053 | 56 | 90 | 0.0 | 0.0 | 0.00 | 0.00 | 0.34 | 97 | 1005.1 |
| 20260901040548 | 56 | 90 | 0.0 | 0.0 | 0.00 | 0.00 | 0.34 | 97 | 1005.1 |
| 20260901040043 | 56 | 90 | 0.0 | 1.0 | 0.00 | 0.00 | 0.34 | 97 | 1005.0 |
| 20260901035537 | 56 | 90 | 0.0 | 0.0 | 0.00 | 0.00 | 0.34 | 97 | 1005.0 |
| 20260901035032 | 56 | 90 | 0.0 | 0.0 | 0.00 | 0.00 | 0.34 | 97 | 1005.0 |
| 20260901034527 | 56 | 90 | 0.0 | 0.0 | 0.00 | 0.00 | 0.34 | 97 | 1005.0 |
| 20260901034022 | 56 | 90 | 0.0 | 0.0 | 0.00 | 0.00 | 0.34 | 97 | 1004.9 |
| 20260901033516 | 56 | 90 | 0.0 | 0.0 | 0.00 | 0.00 | 0.34 | 97 | 1004.8 |
| 20260901033011 | 56 | 90 | 0.0 | 0.0 | 0.00 | 0.00 | 0.34 | 96 | 1004.9 |
| 20260901032506 | 56 | 90 | 0.0 | 0.0 | 0.00 | 0.00 | 0.34 | 97 | 1004.8 |
| 20260901032001 | 56 | 90 | 0.0 | 0.0 | 0.00 | 0.00 | 0.34 | 97 | 1004.9 |
| 20260901031456 | 56 | 90 | 0.0 | 0.0 | 0.00 | 0.00 | 0.34 | 97 | 1004.9 |
| 20260901030950 | 57 | 90 | 0.0 | 0.0 | 0.00 | 0.00 | 0.34 | 98 | 1004.9 |
| 20260901030445 | 56 | 90 | 0.0 | 0.0 | 0.00 | 0.00 | 0.34 | 97 | 1004.8 |
| 20260901025940 | 57 | 90 | 0.0 | 0.0 | 0.00 | 0.00 | 0.34 | 97 | 1004.8 |
| 20260901024927 | 57 | 90 | 0.0 | 0.0 | 0.00 | 0.00 | 0.34 | 97 | 1004.7 |
| 20260901024422 | 57 | 90 | 0.0 | 0.0 | 0.00 | 0.00 | 0.34 | 97 | 1004.8 |
| 20260901023916 | 57 | 90 | 0.0 | 0.0 | 0.00 | 0.00 | 0.34 | 96 | 1004.7 |
| 20260901023411 | 57 | 85 | 0.0 | 1.0 | 0.00 | 0.00 | 0.34 | 97 | 1004.7 |
| 20260901022906 | 57 | 90 | 1.0 | 2.0 | 0.00 | 0.00 | 0.34 | 97 | 1004.6 |
| 20260901022401 | 57 | 90 | 1.0 | 1.0 | 0.00 | 0.00 | 0.34 | 97 | 1004.7 |
| 20260901021856 | 57 | 90 | 0.0 | 0.0 | 0.00 | 0.00 | 0.34 | 97 | 1004.5 |
| 20260901021350 | 57 | 90 | 0.0 | 0.0 | 0.00 | 0.00 | 0.34 | 97 | 1004.6 |
| 20260901020845 | 57 | 90 | 0.0 | 1.0 | 0.00 | 0.00 | 0.34 | 96 | 1004.5 |
| 20260901020340 | 57 | 85 | 0.0 | 0.0 | 0.00 | 0.00 | 0.34 | 96 | 1004.5 |
| 20260901015835 | 56 | 90 | 0.0 | 1.0 | 0.00 | 0.00 | 0.34 | 96 | 1004.5 |
| 20260901015330 | 56 | 85 | 0.0 | 2.0 | 0.00 | 0.00 | 0.34 | 97 | 1004.5 |
| 20260901014824 | 56 | 90 | 0.0 | 0.0 | 0.00 | 0.00 | 0.34 | 97 | 1004.4 |
| 20260901014319 | 56 | 90 | 0.0 | 1.0 | 0.00 | 0.00 | 0.33 | 96 | 1004.3 |
| 20260901013814 | 56 | 90 | 0.0 | 1.0 | 0.00 | 0.00 | 0.31 | 96 | 1004.3 |
| 20260901013309 | 56 | 90 | 2.0 | 2.0 | 0.00 | 0.00 | 0.31 | 96 | 1004.5 |
| 20260901012804 | 56 | 90 | 0.0 | 1.0 | 0.00 | 0.00 | 0.31 | 96 | 1004.3 |
| 20260901012258 | 56 | 90 | 0.0 | 0.0 | 0.00 | 0.00 | 0.31 | 96 | 1004.4 |
| 20260901011753 | 55 | 90 | 0.0 | 0.0 | 0.00 | 0.00 | 0.31 | 96 | 1004.3 |
| 20260901011248 | 55 | 85 | 0.0 | 0.0 | 0.00 | 0.00 | 0.31 | 95 | 1004.4 |
| 20260901010743 | 55 | 90 | 0.0 | 0.0 | 0.00 | 0.00 | 0.31 | 96 | 1004.4 |
| 20260901010238 | 55 | 85 | 0.0 | 1.0 | 0.00 | 0.00 | 0.31 | 95 | 1004.3 |
| 20260901005732 | 55 | 90 | 1.0 | 1.0 | 0.00 | 0.00 | 0.31 | 96 | 1004.3 |
| 20260901005227 | 55 | 90 | 1.0 | 2.0 | 0.00 | 0.00 | 0.31 | 96 | 1004.3 |
| 20260901004722 | 55 | 90 | 0.0 | 2.0 | 0.00 | 0.00 | 0.31 | 95 | 1004.2 |
| 20260901004217 | 55 | 85 | 0.0 | 0.0 | 0.00 | 0.00 | 0.31 | 95 | 1004.4 |
| 20260901003712 | 55 | 90 | 0.0 | 0.0 | 0.00 | 0.00 | 0.31 | 96 | 1004.2 |
| 20260901003206 | 55 | 90 | 0.0 | 0.0 | 0.00 | 0.00 | 0.31 | 95 | 1004.2 |
| 20260901002701 | 55 | 90 | 0.0 | 0.0 | 0.00 | 0.00 | 0.31 | 95 | 1004.2 |
| 20260901002156 | 55 | 90 | 0.0 | 0.0 | 0.00 | 0.00 | 0.31 | 95 | 1004.3 |
| 20260901001651 | 55 | 90 | 0.0 | 0.0 | 0.00 | 0.00 | 0.30 | 95 | 1004.3 |
| 20260901001146 | 55 | 90 | 0.0 | 0.0 | 0.00 | 0.00 | 0.30 | 95 | 1004.2 |
| 20260901000811 | 55 | 90 | 0.0 | 0.0 | 0.00 | 0.00 | 0.30 | 95 | 1004.2 |
| 20260901000809 | 55 | 180 | 0.0 | 0.0 | 0.00 | 0.00 | 0.30 | 94 | 1004.2 |
| 20260901000807 | 55 | 225 | 0.0 | 1.0 | 0.00 | 0.00 | 0.30 | 94 | 1004.1 |
| 20260901000804 | 55 | 90 | 0.0 | 0.0 | 0.00 | 0.00 | 0.30 | 94 | 1004.4 |
| 20260901000640 | 55 | 90 | 0.0 | 0.0 | 0.00 | 0.00 | 0.30 | 95 | 1004.2 |
| 20260901000135 | 55 | 90 | 0.0 | 0.0 | 0.00 | 0.00 | 0.30 | 95 | 1004.2 |
| 20260831235630 | 55 | 90 | 0.0 | 0.0 | 0.00 | 0.00 | 0.30 | 95 | 1004.2 |
| 20260831235125 | 55 | 90 | 0.0 | 0.0 | 0.00 | 0.00 | 0.30 | 95 | 1004.2 |
| 20260831234620 | 55 | 90 | 0.0 | 0.0 | 0.00 | 0.00 | 0.30 | 94 | 1004.2 |
| 20260831234114 | 55 | 90 | 0.0 | 0.0 | 0.00 | 0.00 | 0.30 | 94 | 1004.3 |
| 20260831233609 | 55 | 180 | 0.0 | 0.0 | 0.00 | 0.00 | 0.30 | 94 | 1004.2 |
| 20260831233104 | 55 | 180 | 0.0 | 0.0 | 0.00 | 0.00 | 0.30 | 94 | 1004.2 |
| 20260831232559 | 55 | 225 | 0.0 | 0.0 | 0.00 | 0.00 | 0.30 | 94 | 1004.1 |
| 20260831232054 | 55 | 225 | 0.0 | 1.0 | 0.00 | 0.00 | 0.30 | 94 | 1004.1 |
| 20260831231548 | 55 | 225 | 0.0 | 1.0 | 0.00 | 0.00 | 0.30 | 94 | 1004.1 |
| 20260831231043 | 55 | 225 | 0.0 | 0.0 | 0.00 | 0.00 | 0.30 | 94 | 1004.0 |
| 20260831230538 | 55 | 90 | 0.0 | 0.0 | 0.00 | 0.00 | 0.30 | 94 | 1004.3 |
| 20260831230033 | 55 | 90 | 0.0 | 0.0 | 0.00 | 0.00 | 0.30 | 94 | 1004.3 |
| 20260831225528 | 55 | 90 | 0.0 | 0.0 | 0.00 | 0.00 | 0.30 | 94 | 1004.4 |
| 20260831225022 | 55 | 90 | 0.0 | 0.0 | 0.00 | 0.00 | 0.30 | 94 | 1004.4 |
| 20260831224517 | 55 | 90 | 0.0 | 0.0 | 0.00 | 0.00 | 0.30 | 94 | 1004.4 |
| 20260831224012 | 55 | 90 | 0.0 | 0.0 | 0.00 | 0.00 | 0.30 | 94 | 1004.4 |
| 20260831223507 | 55 | 90 | 1.0 | 1.0 | 0.00 | 0.00 | 0.30 | 93 | 1004.5 |
| 20260831223002 | 55 | 90 | 0.0 | 0.0 | 0.00 | 0.00 | 0.30 | 94 | 1004.5 |
| 20260831222456 | 55 | 90 | 0.0 | 0.0 | 0.00 | 0.00 | 0.30 | 94 | 1004.4 |
| 20260831221951 | 55 | 58 | 0.0 | 0.0 | 0.00 | 0.00 | 0.30 | 93 | 1004.4 |
| 20260831221446 | 55 | 45 | 0.0 | 0.0 | 0.00 | 0.00 | 0.30 | 93 | 1004.4 |
| 20260831220941 | 55 | 45 | 0.0 | 0.0 | 0.00 | 0.00 | 0.30 | 93 | 1004.4 |
| 20260831220436 | 55 | 45 | 0.0 | 0.0 | 0.00 | 0.00 | 0.30 | 93 | 1004.5 |
| 20260831215931 | 56 | 45 | 0.0 | 0.0 | 0.00 | 0.00 | 0.30 | 93 | 1004.5 |
| 20260831215425 | 56 | 45 | 0.0 | 0.0 | 0.00 | 0.00 | 0.30 | 93 | 1004.3 |
| 20260831214920 | 56 | 45 | 0.0 | 0.0 | 0.00 | 0.00 | 0.30 | 93 | 1004.2 |
| 20260831214415 | 56 | 90 | 0.0 | 0.0 | 0.00 | 0.00 | 0.30 | 93 | 1004.2 |
| 20260831213910 | 56 | 85 | 0.0 | 1.0 | 0.00 | 0.00 | 0.30 | 92 | 1004.2 |
| 20260831213404 | 56 | 90 | 0.0 | 0.0 | 0.00 | 0.00 | 0.30 | 93 | 1004.3 |
| 20260831212859 | 57 | 90 | 0.0 | 1.0 | 0.00 | 0.00 | 0.30 | 93 | 1004.1 |
| 20260831212354 | 57 | 90 | 0.0 | 1.0 | 0.00 | 0.00 | 0.30 | 93 | 1004.1 |
| 20260831211849 | 57 | 90 | 1.0 | 1.0 | 0.00 | 0.00 | 0.30 | 93 | 1003.9 |
| 20260831211344 | 57 | 45 | 0.0 | 0.0 | 0.00 | 0.00 | 0.30 | 93 | 1004.0 |
| 20260831210839 | 57 | 45 | 0.0 | 1.0 | 0.00 | 0.00 | 0.30 | 93 | 1004.1 |
| 20260831210333 | 57 | 0 | 0.0 | 0.0 | 0.00 | 0.00 | 0.30 | 93 | 1004.0 |
| 20260831205828 | 57 | 0 | 0.0 | 0.0 | 0.00 | 0.00 | 0.30 | 93 | 1004.0 |
| 20260831205323 | 57 | 0 | 0.0 | 1.0 | 0.00 | 0.00 | 0.30 | 92 | 1004.1 |
| 20260831204818 | 57 | 135 | 0.0 | 0.0 | 0.00 | 0.00 | 0.30 | 92 | 1004.1 |
| 20260831204313 | 57 | 135 | 0.0 | 0.0 | 0.00 | 0.00 | 0.30 | 92 | 1004.1 |
| 20260831203807 | 57 | 135 | 0.0 | 1.0 | 0.00 | 0.00 | 0.30 | 92 | 1004.2 |
| 20260831203302 | 57 | 135 | 1.0 | 3.0 | 0.00 | 0.00 | 0.30 | 92 | 1004.1 |
| 20260831202757 | 57 | 135 | 0.0 | 0.0 | 0.00 | 0.00 | 0.30 | 92 | 1004.1 |
| 20260831202252 | 57 | 90 | 0.0 | 0.0 | 0.00 | 0.00 | 0.30 | 91 | 1004.2 |
| 20260831201747 | 57 | 270 | 0.0 | 2.0 | 0.00 | 0.00 | 0.30 | 91 | 1004.1 |
| 20260831201241 | 57 | 270 | 1.0 | 1.0 | 0.00 | 0.00 | 0.30 | 92 | 1004.1 |
| 20260831200736 | 57 | 135 | 0.0 | 4.0 | 0.00 | 0.00 | 0.30 | 91 | 1004.0 |
| 20260831200231 | 57 | 135 | 4.0 | 4.0 | 0.00 | 0.00 | 0.30 | 91 | 1004.1 |
| 20260831195726 | 57 | 108 | 2.0 | 5.0 | 0.00 | 0.00 | 0.30 | 92 | 1004.1 |
| 20260831195221 | 57 | 103 | 4.0 | 6.0 | 0.00 | 0.00 | 0.30 | 91 | 1004.1 |
| 20260831194715 | 57 | 90 | 3.0 | 5.0 | 0.00 | 0.00 | 0.30 | 91 | 1004.1 |
| 20260831194210 | 57 | 90 | 3.0 | 6.0 | 0.00 | 0.00 | 0.30 | 91 | 1004.1 |
| 20260831193705 | 57 | 90 | 6.0 | 7.0 | 0.00 | 0.00 | 0.30 | 90 | 1004.1 |
| 20260831193200 | 57 | 126 | 4.0 | 6.0 | 0.00 | 0.00 | 0.30 | 91 | 1004.1 |
| 20260831192655 | 57 | 99 | 7.0 | 7.0 | 0.00 | 0.00 | 0.30 | 90 | 1004.0 |
| 20260831192149 | 57 | 108 | 4.0 | 7.0 | 0.00 | 0.00 | 0.30 | 91 | 1003.9 |
| 20260831191644 | 58 | 99 | 5.0 | 8.0 | 0.00 | 0.00 | 0.30 | 90 | 1003.9 |
| 20260831191139 | 58 | 121 | 5.0 | 5.0 | 0.00 | 0.00 | 0.30 | 90 | 1004.0 |
| 20260831190634 | 58 | 90 | 4.0 | 5.0 | 0.00 | 0.00 | 0.30 | 90 | 1004.0 |
| 20260831190129 | 58 | 108 | 1.0 | 3.0 | 0.00 | 0.00 | 0.30 | 90 | 1004.1 |
| 20260831185623 | 58 | 90 | 1.0 | 5.0 | 0.00 | 0.00 | 0.30 | 90 | 1003.9 |
| 20260831185118 | 58 | 85 | 2.0 | 5.0 | 0.00 | 0.00 | 0.30 | 90 | 1003.9 |
| 20260831184613 | 58 | 126 | 4.0 | 5.0 | 0.00 | 0.00 | 0.30 | 90 | 1003.8 |
| 20260831184108 | 58 | 85 | 0.0 | 0.0 | 0.00 | 0.00 | 0.30 | 90 | 1003.9 |
| 20260831183603 | 58 | 90 | 0.0 | 2.0 | 0.00 | 0.00 | 0.30 | 89 | 1003.8 |
| 20260831183057 | 58 | 90 | 2.0 | 2.0 | 0.00 | 0.00 | 0.30 | 89 | 1003.7 |
| 20260831182552 | 58 | 112 | 2.0 | 2.0 | 0.00 | 0.00 | 0.30 | 89 | 1003.8 |
| 20260831182047 | 58 | 135 | 3.0 | 4.0 | 0.00 | 0.00 | 0.30 | 89 | 1003.6 |
| 20260831181542 | 58 | 135 | 2.0 | 3.0 | 0.00 | 0.00 | 0.30 | 89 | 1003.6 |
| 20260831181037 | 58 | 135 | 2.0 | 3.0 | 0.00 | 0.00 | 0.30 | 89 | 1003.6 |
| 20260831180531 | 58 | 135 | 2.0 | 3.0 | 0.00 | 0.00 | 0.30 | 89 | 1003.6 |
| 20260831180026 | 58 | 135 | 2.0 | 3.0 | 0.00 | 0.00 | 0.30 | 89 | 1003.7 |
| 20260831175521 | 58 | 135 | 2.0 | 3.0 | 0.00 | 0.00 | 0.30 | 89 | 1003.7 |
| 20260831175016 | 58 | 135 | 3.0 | 3.0 | 0.00 | 0.00 | 0.30 | 89 | 1003.6 |
| 20260831174511 | 58 | 135 | 1.0 | 3.0 | 0.00 | 0.00 | 0.30 | 88 | 1003.6 |
| 20260831174005 | 58 | 135 | 2.0 | 3.0 | 0.00 | 0.00 | 0.30 | 88 | 1003.5 |
| 20260831173500 | 58 | 135 | 2.0 | 2.0 | 0.00 | 0.00 | 0.28 | 88 | 1003.6 |
| 20260831172955 | 58 | 135 | 1.0 | 1.0 | 0.00 | 0.00 | 0.28 | 88 | 1003.6 |
| 20260831172450 | 58 | 135 | 1.0 | 3.0 | 0.00 | 0.00 | 0.28 | 88 | 1003.7 |
| 20260831171945 | 58 | 135 | 1.0 | 3.0 | 0.00 | 0.00 | 0.28 | 88 | 1003.5 |
| 20260831171439 | 59 | 135 | 4.0 | 4.0 | 0.00 | 0.00 | 0.28 | 88 | 1003.7 |
| 20260831170934 | 59 | 135 | 2.0 | 3.0 | 0.00 | 0.00 | 0.28 | 88 | 1003.6 |
| 20260831170430 | 59 | 180 | 3.0 | 5.0 | 0.00 | 0.00 | 0.28 | 89 | 1003.6 |
| 20260831165924 | 60 | 180 | 4.0 | 5.0 | 0.00 | 0.00 | 0.28 | 89 | 1003.6 |
| 20260831165419 | 60 | 180 | 5.0 | 5.0 | 0.00 | 0.00 | 0.28 | 89 | 1003.4 |
| 20260831164913 | 60 | 180 | 3.0 | 5.0 | 0.00 | 0.00 | 0.28 | 90 | 1003.6 |
| 20260831164408 | 60 | 180 | 3.0 | 6.0 | 0.00 | 0.00 | 0.28 | 90 | 1003.6 |
| 20260831163904 | 60 | 135 | 4.0 | 5.0 | 0.00 | 0.00 | 0.28 | 91 | 1003.5 |
| 20260831163358 | 59 | 135 | 2.0 | 3.0 | 0.00 | 0.00 | 0.28 | 91 | 1003.6 |
| 20260831162853 | 59 | 112 | 3.0 | 5.0 | 0.00 | 0.00 | 0.28 | 91 | 1003.6 |
| 20260831162348 | 59 | 135 | 2.0 | 3.0 | 0.00 | 0.00 | 0.28 | 91 | 1003.6 |
| 20260831161842 | 59 | 135 | 1.0 | 2.0 | 0.00 | 0.00 | 0.28 | 90 | 1003.5 |
| 20260831161338 | 59 | 135 | 2.0 | 3.0 | 0.00 | 0.00 | 0.28 | 90 | 1003.6 |
| 20260831160832 | 58 | 162 | 2.0 | 4.0 | 0.00 | 0.00 | 0.28 | 90 | 1003.5 |
| 20260831160327 | 59 | 180 | 5.0 | 6.0 | 0.00 | 0.00 | 0.28 | 90 | 1003.6 |
| 20260831155822 | 59 | 144 | 4.0 | 5.0 | 0.00 | 0.00 | 0.28 | 90 | 1003.6 |
| 20260831155316 | 59 | 135 | 3.0 | 6.0 | 0.00 | 0.00 | 0.28 | 90 | 1003.7 |
| 20260831154812 | 58 | 135 | 4.0 | 6.0 | 0.00 | 0.00 | 0.28 | 89 | 1003.7 |
| 20260831154306 | 59 | 135 | 5.0 | 6.0 | 0.00 | 0.00 | 0.28 | 89 | 1003.7 |
| 20260831153256 | 59 | 58 | 1.0 | 4.0 | 0.00 | 0.00 | 0.28 | 89 | 1003.7 |
| 20260831152750 | 59 | 45 | 1.0 | 3.0 | 0.00 | 0.00 | 0.28 | 89 | 1003.9 |
| 20260831152246 | 59 | 180 | 0.0 | 1.0 | 0.00 | 0.00 | 0.26 | 89 | 1003.9 |
| 20260831151740 | 59 | 90 | 0.0 | 6.0 | 0.00 | 0.00 | 0.25 | 88 | 1003.9 |
| 20260831151235 | 59 | 90 | 3.0 | 6.0 | 0.00 | 0.00 | 0.25 | 88 | 1003.9 |
| 20260831150730 | 59 | 90 | 5.0 | 6.0 | 0.00 | 0.00 | 0.23 | 87 | 1003.9 |
| 20260831150224 | 59 | 90 | 2.0 | 4.0 | 0.00 | 0.00 | 0.22 | 88 | 1004.0 |
| 20260831145720 | 59 | 90 | 2.0 | 4.0 | 0.00 | 0.00 | 0.20 | 87 | 1003.9 |
| 20260831145214 | 59 | 90 | 2.0 | 3.0 | 0.00 | 0.00 | 0.18 | 86 | 1004.0 |
| 20260831144709 | 59 | 58 | 2.0 | 7.0 | 0.00 | 0.00 | 0.18 | 86 | 1004.1 |
| 20260831144204 | 59 | 90 | 3.0 | 5.0 | 0.00 | 0.00 | 0.17 | 86 | 1004.0 |
| 20260831143658 | 60 | 135 | 6.0 | 8.0 | 0.00 | 0.00 | 0.16 | 85 | 1004.1 |
| 20260831143154 | 60 | 180 | 8.0 | 8.0 | 0.00 | 0.00 | 0.14 | 86 | 1004.1 |
| 20260831142648 | 60 | 135 | 3.0 | 6.0 | 0.00 | 0.00 | 0.13 | 86 | 1004.0 |
| 20260831142143 | 60 | 90 | 1.0 | 5.0 | 0.00 | 0.00 | 0.12 | 86 | 1004.0 |
| 20260831141638 | 60 | 90 | 0.0 | 2.0 | 0.00 | 0.00 | 0.12 | 86 | 1004.1 |
| 20260831141132 | 60 | 90 | 2.0 | 2.0 | 0.00 | 0.00 | 0.12 | 86 | 1004.1 |
| 20260831140628 | 60 | 90 | 3.0 | 6.0 | 0.00 | 0.00 | 0.12 | 87 | 1004.0 |
| 20260831140122 | 60 | 90 | 2.0 | 5.0 | 0.00 | 0.00 | 0.11 | 86 | 1004.1 |
| 20260831135617 | 60 | 90 | 3.0 | 6.0 | 0.00 | 0.00 | 0.09 | 86 | 1004.1 |
| 20260831134604 | 59 | 63 | 6.0 | 6.0 | 0.00 | 0.00 | 0.09 | 86 | 1004.4 |
| 20260831134059 | 59 | 90 | 4.0 | 5.0 | 0.00 | 0.00 | 0.09 | 85 | 1004.4 |
| 20260831133553 | 58 | 135 | 4.0 | 4.0 | 0.00 | 0.00 | 0.09 | 84 | 1004.4 |
| 20260831133048 | 58 | 135 | 4.0 | 6.0 | 0.00 | 0.00 | 0.09 | 83 | 1004.5 |
| 20260831132543 | 58 | 94 | 3.0 | 8.0 | 0.00 | 0.00 | 0.08 | 83 | 1004.6 |
| 20260831132037 | 58 | 135 | 7.0 | 8.0 | 0.00 | 0.00 | 0.07 | 82 | 1004.5 |
| 20260831131533 | 58 | 121 | 4.0 | 9.0 | 0.00 | 0.00 | 0.06 | 82 | 1004.5 |
| 20260831131027 | 58 | 135 | 6.0 | 7.0 | 0.00 | 0.00 | 0.05 | 81 | 1004.6 |
| 20260831130522 | 59 | 135 | 7.0 | 10.0 | 0.00 | 0.00 | 0.05 | 81 | 1004.6 |
| 20260831130017 | 59 | 135 | 7.0 | 10.0 | 0.00 | 0.00 | 0.04 | 79 | 1004.6 |
| 20260831125511 | 59 | 135 | 6.0 | 11.0 | 0.00 | 0.00 | 0.04 | 79 | 1004.6 |
| 20260831125007 | 59 | 144 | 8.0 | 12.0 | 0.00 | 0.00 | 0.03 | 77 | 1004.6 |
| 20260831124501 | 60 | 135 | 10.0 | 13.0 | 0.00 | 0.00 | 0.02 | 75 | 1004.7 |
| 20260831123956 | 61 | 157 | 12.0 | 14.0 | 0.00 | 0.00 | 0.01 | 74 | 1004.8 |
| 20260831123451 | 62 | 180 | 12.0 | 17.0 | 0.00 | 0.00 | 0.00 | 72 | 1004.7 |
| 20260831122946 | 62 | 184 | 18.0 | 21.0 | 0.00 | 0.00 | 0.00 | 71 | 1004.6 |
| 20260831122441 | 63 | 144 | 7.0 | 13.0 | 0.00 | 0.00 | 0.00 | 70 | 1004.6 |
| 20260831121935 | 63 | 144 | 8.0 | 14.0 | 0.00 | 0.00 | 0.00 | 69 | 1004.6 |
| 20260831121430 | 63 | 153 | 10.0 | 18.0 | 0.00 | 0.00 | 0.00 | 69 | 1004.7 |
| 20260831120925 | 64 | 175 | 12.0 | 16.0 | 0.00 | 0.00 | 0.00 | 68 | 1004.7 |
| 20260831120420 | 64 | 180 | 14.0 | 16.0 | 0.00 | 0.00 | 0.00 | 68 | 1004.6 |
| 20260831115915 | 65 | 166 | 12.0 | 17.0 | 0.00 | 0.00 | 0.00 | 68 | 1004.7 |
| 20260831115409 | 65 | 175 | 13.0 | 15.0 | 0.00 | 0.00 | 0.00 | 68 | 1004.5 |
| 20260831114904 | 65 | 180 | 11.0 | 15.0 | 0.00 | 0.00 | 0.00 | 69 | 1004.5 |
| 20260831114359 | 65 | 180 | 10.0 | 18.0 | 0.00 | 0.00 | 0.00 | 69 | 1004.6 |
| 20260831113854 | 65 | 162 | 8.0 | 14.0 | 0.00 | 0.00 | 0.00 | 70 | 1004.7 |
| 20260831113349 | 65 | 153 | 10.0 | 13.0 | 0.00 | 0.00 | 0.00 | 70 | 1004.4 |
| 20260831112843 | 65 | 184 | 7.0 | 16.0 | 0.00 | 0.00 | 0.00 | 68 | 1004.5 |
| 20260831112338 | 65 | 216 | 7.0 | 16.0 | 0.00 | 0.00 | 0.00 | 69 | 1004.6 |
| 20260831111833 | 66 | 175 | 10.0 | 16.0 | 0.00 | 0.00 | 0.00 | 71 | 1004.7 |
| 20260831111328 | 65 | 189 | 13.0 | 15.0 | 0.00 | 0.00 | 0.00 | 72 | 1004.7 |
| 20260831110823 | 65 | 225 | 10.0 | 16.0 | 0.00 | 0.00 | 0.00 | 71 | 1004.6 |
| 20260831110317 | 65 | 198 | 11.0 | 13.0 | 0.00 | 0.00 | 0.00 | 70 | 1004.7 |
| 20260831105812 | 65 | 180 | 12.0 | 17.0 | 0.00 | 0.00 | 0.00 | 70 | 1004.7 |
| 20260831105307 | 66 | 180 | 15.0 | 18.0 | 0.00 | 0.00 | 0.00 | 70 | 1004.7 |
| 20260831104802 | 66 | 198 | 15.0 | 15.0 | 0.00 | 0.00 | 0.00 | 72 | 1004.7 |
| 20260831104257 | 65 | 139 | 11.0 | 11.0 | 0.00 | 0.00 | 0.00 | 72 | 1004.8 |
| 20260831103751 | 66 | 202 | 8.0 | 15.0 | 0.00 | 0.00 | 0.00 | 73 | 1004.7 |
| 20260831103246 | 66 | 184 | 16.0 | 17.0 | 0.00 | 0.00 | 0.00 | 75 | 1004.7 |
| 20260831102741 | 65 | 180 | 10.0 | 14.0 | 0.00 | 0.00 | 0.00 | 75 | 1004.8 |
| 20260831102236 | 64 | 180 | 9.0 | 10.0 | 0.00 | 0.00 | 0.00 | 74 | 1004.7 |
| 20260831101731 | 63 | 162 | 4.0 | 8.0 | 0.00 | 0.00 | 0.00 | 74 | 1004.8 |
| 20260831101225 | 64 | 180 | 10.0 | 11.0 | 0.00 | 0.00 | 0.00 | 73 | 1004.9 |
| 20260831100720 | 64 | 180 | 12.0 | 13.0 | 0.00 | 0.00 | 0.00 | 74 | 1004.9 |
| 20260831100215 | 63 | 180 | 9.0 | 13.0 | 0.00 | 0.00 | 0.00 | 74 | 1004.8 |
| 20260831095710 | 63 | 193 | 8.0 | 11.0 | 0.00 | 0.00 | 0.00 | 73 | 1004.8 |
| 20260831095205 | 63 | 180 | 9.0 | 13.0 | 0.00 | 0.00 | 0.00 | 73 | 1004.8 |
| 20260831094659 | 64 | 180 | 9.0 | 12.0 | 0.00 | 0.00 | 0.00 | 72 | 1004.8 |
| 20260831094154 | 64 | 180 | 9.0 | 17.0 | 0.00 | 0.00 | 0.00 | 72 | 1004.8 |
| 20260831093649 | 64 | 184 | 7.0 | 11.0 | 0.00 | 0.00 | 0.00 | 72 | 1004.9 |
| 20260831093144 | 64 | 207 | 10.0 | 14.0 | 0.00 | 0.00 | 0.00 | 71 | 1004.8 |
| 20260831092639 | 64 | 180 | 7.0 | 14.0 | 0.00 | 0.00 | 0.00 | 71 | 1004.9 |
| 20260831092133 | 64 | 171 | 8.0 | 15.0 | 0.00 | 0.00 | 0.00 | 72 | 1004.9 |
| 20260831091628 | 63 | 184 | 9.0 | 12.0 | 0.00 | 0.00 | 0.00 | 72 | 1004.9 |
| 20260831091123 | 63 | 180 | 9.0 | 12.0 | 0.00 | 0.00 | 0.00 | 72 | 1004.9 |
| 20260831090618 | 63 | 225 | 7.0 | 14.0 | 0.00 | 0.00 | 0.00 | 72 | 1004.9 |
| 20260831090113 | 63 | 193 | 10.0 | 14.0 | 0.00 | 0.00 | 0.00 | 72 | 1004.8 |
| 20260831085607 | 63 | 180 | 10.0 | 14.0 | 0.00 | 0.00 | 0.00 | 73 | 1004.8 |
| 20260831085102 | 64 | 225 | 12.0 | 14.0 | 0.00 | 0.00 | 0.00 | 72 | 1004.8 |
| 20260831084557 | 65 | 180 | 12.0 | 15.0 | 0.00 | 0.00 | 0.00 | 72 | 1004.9 |
| 20260831084052 | 65 | 180 | 11.0 | 16.0 | 0.00 | 0.00 | 0.00 | 72 | 1004.8 |
| 20260831083547 | 66 | 225 | 14.0 | 18.0 | 0.00 | 0.00 | 0.00 | 74 | 1004.7 |
| 20260831083041 | 66 | 207 | 8.0 | 15.0 | 0.00 | 0.00 | 0.00 | 76 | 1004.7 |
| 20260831082536 | 66 | 238 | 8.0 | 16.0 | 0.00 | 0.00 | 0.00 | 78 | 1004.7 |
| 20260831082031 | 65 | 198 | 14.0 | 17.0 | 0.00 | 0.00 | 0.00 | 80 | 1004.6 |
| 20260831081526 | 63 | 225 | 26.0 | 26.0 | 0.00 | 0.00 | 0.25 | 82 | 1004.6 |
| 20260831081021 | 62 | 184 | 14.0 | 15.0 | 0.00 | 0.00 | 0.25 | 82 | 1004.6 |
| 20260831080515 | 62 | 243 | 7.0 | 9.0 | 0.00 | 0.00 | 0.25 | 82 | 1004.6 |
| 20260831080010 | 61 | 238 | 6.0 | 11.0 | 0.00 | 0.00 | 0.25 | 82 | 1004.5 |
| 20260831075505 | 61 | 225 | 9.0 | 9.0 | 0.00 | 0.00 | 0.25 | 83 | 1004.5 |
| 20260831075000 | 61 | 256 | 11.0 | 11.0 | 0.00 | 0.00 | 0.25 | 83 | 1004.6 |
| 20260831074455 | 61 | 198 | 4.0 | 7.0 | 0.00 | 0.00 | 0.25 | 83 | 1004.6 |
| 20260831073949 | 60 | 184 | 4.0 | 5.0 | 0.00 | 0.00 | 0.25 | 83 | 1004.6 |
| 20260831073444 | 60 | 225 | 2.0 | 7.0 | 0.00 | 0.00 | 0.25 | 83 | 1004.7 |
| 20260831072939 | 60 | 225 | 5.0 | 6.0 | 0.00 | 0.00 | 0.24 | 83 | 1004.6 |
| 20260831072434 | 59 | 225 | 3.0 | 6.0 | 0.00 | 0.00 | 0.24 | 83 | 1004.6 |
| 20260831071929 | 59 | 225 | 4.0 | 6.0 | 0.00 | 0.00 | 0.24 | 82 | 1004.7 |
| 20260831071423 | 59 | 243 | 6.0 | 9.0 | 0.00 | 0.00 | 0.24 | 82 | 1004.6 |
| 20260831070918 | 60 | 211 | 3.0 | 8.0 | 0.00 | 0.00 | 0.24 | 82 | 1004.7 |
| 20260831070413 | 60 | 225 | 5.0 | 6.0 | 0.00 | 0.00 | 0.24 | 82 | 1004.7 |
| 20260831065908 | 60 | 225 | 6.0 | 6.0 | 0.00 | 0.00 | 0.24 | 82 | 1004.7 |
| 20260831065403 | 60 | 288 | 5.0 | 6.0 | 0.00 | 0.00 | 0.24 | 81 | 1004.6 |